Temperature
6 7 7 8 9 10 9 9 9 10 11 13 13 12 11 12 11 11 10 9 10 11 11 11 10 9 9 8 7 7 7 6 6 5 5 4 4 3 3 2 2 1 1 1
6 8 8 9 10 10 9 9 9 9 11 13 12 11 10 11 11 10 10 9 10 11 11 10 10 9 8 7 7 6 6 5 5 4 4 3 3 2 2 1 1 1 0 -0
8 10 10 10 10 10 9 9 9 10 12 12 11 11 10 11 11 11 10 10 10 11 11 10 9 9 8 7 6 5 5 4 4 3 3 2 2 1 1 1 0 -0 -1 -1
8 10 10 12 12 11 10 11 11 12 11 10 8 6 8 11 12 11 11 10 10 11 10 10 9 8 7 6 5 5 4 3 3 2 2 2 1 0 0 -0 -1 -1 -2 -2
8 9 11 12 12 11 12 12 11 10 8 7 8 9 8 9 12 12 11 11 11 11 10 9 8 7 6 5 4 4 3 2 2 2 1 1 0 -0 -1 -1 -1 -2 -2 -3
8 9 11 13 13 12 13 12 12 10 9 7 9 9 7 6 10 11 11 11 11 10 9 8 7 6 5 4 3 3 2 2 1 1 1 0 -0 -1 -1 -2 -2 -3 -3 -3
8 8 9 10 11 13 12 12 11 10 9 9 8 9 7 7 9 10 10 10 9 9 8 7 6 5 4 3 3 2 1 1 1 0 -0 -1 -1 -2 -2 -3 -3 -3 -3 -4
8 8 9 11 12 12 11 10 9 9 9 7 5 6 6 8 8 8 8 8 7 7 6 5 4 4 3 2 2 1 1 0 -0 -1 -1 -2 -2 -2 -3 -3 -3 -3 -4 -5
8 9 10 11 12 11 11 9 8 8 9 9 5 5 6 7 7 7 7 6 6 6 5 4 3 2 2 1 1 1 0 -0 -1 -1 -2 -3 -3 -3 -3 -3 -4 -5 -6 -7
9 9 9 10 11 11 12 11 11 10 10 9 7 7 7 7 7 6 6 5 5 5 4 3 2 1 1 0 0 -0 -1 -1 -2 -2 -3 -3 -3 -4 -4 -4 -5 -7 -8 -8
8 9 8 9 10 11 11 11 11 9 9 9 8 7 7 7 6 6 5 4 4 3 3 2 1 0 -0 -0 -1 -1 -2 -2 -3 -3 -3 -3 -4 -4 -5 -5 -7 -8 -9 -10
9 8 8 8 10 11 11 10 10 9 7 8 9 8 7 6 6 5 4 3 2 2 1 1 -0 -1 -1 -1 -2 -2 -2 -3 -3 -3 -3 -4 -4 -4 -5 -6 -7 -8 -9 -9
11 11 10 10 9 10 10 9 9 9 8 8 7 7 7 6 5 4 3 2 1 1 0 -0 -1 -1 -2 -2 -2 -3 -3 -3 -3 -4 -4 -4 -5 -6 -6 -6 -7 -8 -8 -9
11 10 7 7 7 9 9 8 8 8 7 7 7 6 6 5 4 3 2 1 0 -0 -1 -1 -2 -2 -2 -3 -3 -3 -3 -4 -4 -4 -5 -5 -6 -7 -8 -8 -9 -8 -9 -9
9 11 10 7 7 8 8 8 7 6 6 5 5 5 5 4 3 2 1 0 -0 -1 -1 -2 -2 -3 -3 -3 -3 -4 -4 -4 -4 -5 -5 -6 -7 -8 -8 -9 -9 -9 -9 -9
8 8 8 7 7 7 7 7 6 5 5 5 5 4 4 3 2 1 0 -0 -1 -1 -2 -2 -3 -3 -3 -3 -4 -4 -4 -5 -5 -5 -6 -6 -7 -8 -9 -9 -9 -10 -10 -10
7 4 4 5 5 6 6 7 7 6 5 5 4 3 3 2 1 0 -1 -2 -2 -2 -2 -3 -3 -3 -4 -4 -4 -5 -5 -5 -6 -6 -7 -8 -8 -9 -9 -10 -10 -10 -10 -10
11 10 9 7 6 6 6 6 6 6 5 4 3 2 2 1 1 -1 -2 -2 -2 -3 -3 -3 -4 -4 -4 -5 -5 -5 -5 -6 -6 -7 -7 -8 -9 -9 -10 -10 -10 -10 -10 -10
9 8 6 6 6 6 6 6 5 5 4 3 2 1 1 -0 -1 -1 -2 -2 -3 -3 -4 -4 -4 -5 -5 -5 -5 -6 -6 -6 -7 -7 -8 -9 -9 -9 -10 -10 -11 -11 -11 -11
7 6 5 6 6 6 6 5 4 3 3 2 1 0 -0 -1 -1 -2 -2 -3 -4 -4 -4 -5 -5 -5 -5 -6 -6 -6 -6 -7 -7 -8 -9 -9 -9 -10 -11 -11 -11 -11 -12 -11
6 5 5 5 5 5 5 4 3 2 1 1 1 1 -0 -1 -2 -2 -3 -3 -4 -4 -5 -5 -5 -6 -6 -6 -6 -7 -7 -8 -8 -9 -9 -10 -10 -10 -11 -11 -11 -12 -12 -11
5 4 5 5 4 4 3 3 2 2 1 0 0 -0 -1 -2 -3 -4 -4 -4 -4 -5 -5 -5 -6 -6 -6 -7 -7 -7 -8 -8 -9 -9 -10 -10 -11 -11 -11 -11 -12 -11 -11 -11
3 4 4 4 3 2 2 1 1 1 0 -0 -1 -1 -2 -3 -3 -3 -4 -4 -5 -5 -6 -6 -6 -7 -7 -7 -7 -8 -8 -9 -9 -10 -10 -11 -11 -11 -12 -11 -11 -11 -11 -11
3 4 3 3 2 1 1 0 -0 -0 -1 -2 -2 -3 -3 -3 -4 -4 -4 -5 -5 -6 -6 -6 -7 -7 -7 -8 -8 -9 -9 -10 -10 -11 -11 -11 -11 -11 -11 -11 -11 -11 -11 -11
4 3 3 2 2 1 0 -1 -1 -2 -2 -3 -3 -4 -4 -4 -4 -5 -5 -6 -6 -6 -7 -7 -7 -8 -8 -8 -9 -9 -10 -10 -11 -11 -11 -11 -11 -11 -11 -11 -11 -11 -11 -11
3 3 2 2 2 1 -0 -1 -1 -2 -2 -3 -4 -4 -5 -5 -5 -6 -6 -6 -7 -7 -7 -7 -8 -8 -9 -9 -10 -10 -10 -11 -11 -11 -11 -11 -11 -11 -11 -11 -11 -11 -11 -11
2 1 1 0 -0 -0 -1 -1 -2 -3 -3 -3 -4 -5 -5 -6 -6 -6 -7 -7 -7 -7 -8 -8 -9 -9 -9 -10 -10 -10 -11 -11 -11 -11 -11 -11 -11 -11 -11 -11 -11 -11 -11 -10
Wind_Speed
16 18 13 13 19 22 16 9 7 7 14 19 11 9 13 14 15 16 16 17 17 16 13 13 13 12 12 11 10 10 10 8 7 5 5 4 3 2 3 4 5 6 7 8
11 14 16 14 19 21 17 11 9 11 14 13 3 4 7 12 16 18 18 17 16 15 14 14 14 13 12 11 10 11 10 8 6 5 4 3 3 3 4 5 6 6 7 8
4 5 11 11 18 20 14 11 13 14 12 5 4 5 6 11 17 19 18 15 16 16 15 14 14 14 13 11 11 10 9 7 6 5 4 3 3 4 5 5 6 7 8 8
4 2 2 2 10 18 17 16 15 11 6 6 8 7 6 3 7 10 12 13 13 13 13 11 11 12 11 11 10 9 8 7 6 5 4 4 4 4 4 4 5 6 7 8
2 3 3 2 4 10 11 8 9 8 8 9 9 7 9 10 5 7 9 12 12 12 14 13 14 14 13 10 9 9 7 6 5 5 4 3 3 4 3 4 6 6 7 8
3 3 1 1 1 1 6 4 5 10 14 11 7 5 2 4 10 14 14 14 14 14 15 14 12 12 13 10 9 8 7 6 5 4 3 2 3 3 3 5 6 7 7 8
1 2 6 6 3 2 6 6 3 8 11 10 5 6 10 8 10 14 15 15 15 15 13 11 10 12 12 9 8 7 7 6 5 4 3 3 3 3 5 6 7 7 8 8
4 3 7 4 2 3 4 2 4 6 7 10 14 16 12 11 12 14 14 13 13 13 11 9 9 12 11 8 7 7 6 5 4 4 4 4 4 5 5 6 7 7 7 8
8 7 3 0 1 2 4 5 5 7 12 19 17 13 12 9 10 11 12 11 10 13 11 8 8 10 10 7 6 6 6 5 5 5 4 4 4 5 5 6 6 6 6 7
4 6 2 2 3 4 4 5 8 12 15 16 17 14 13 11 10 9 10 10 10 12 11 8 7 8 8 7 7 7 6 5 4 4 4 4 4 4 5 5 6 6 7 8
5 3 3 1 2 5 8 12 14 11 11 14 17 15 12 11 10 9 9 7 8 10 10 8 8 8 7 7 7 7 6 4 3 2 3 4 4 4 5 4 8 9 6 7
8 8 7 7 8 9 12 13 15 15 11 10 12 13 12 10 7 8 9 8 9 9 9 8 8 8 7 6 7 6 4 2 1 2 3 4 5 5 9 11 15 16 16 15
5 4 5 8 8 7 10 12 13 13 14 12 9 12 11 7 7 8 9 9 9 9 9 8 8 7 6 6 6 5 3 1 2 3 4 4 4 5 7 9 13 15 17 19
8 9 7 6 7 11 15 15 15 14 12 12 11 11 11 9 8 9 8 8 9 9 9 8 8 6 5 5 5 4 2 2 3 3 4 4 4 5 6 7 8 7 11 17
3 5 10 13 14 15 15 17 17 14 11 10 10 11 11 11 9 8 8 9 10 9 8 8 8 6 4 5 5 3 2 2 3 3 3 4 5 5 6 7 7 8 7 10
10 12 16 18 18 16 17 18 17 13 11 10 10 9 9 10 9 9 8 9 9 8 7 7 7 5 5 4 4 3 2 6 5 4 4 5 5 5 5 6 7 8 9 9
13 12 13 16 16 15 14 14 15 15 12 12 11 11 11 11 10 8 7 7 8 7 7 7 6 5 4 4 3 1 2 4 7 5 4 5 5 5 5 6 7 8 8 12
9 12 16 20 20 18 15 13 14 14 12 11 12 11 11 10 9 8 8 8 8 7 6 6 5 4 3 3 2 1 2 3 4 4 4 4 5 5 6 7 8 9 9 11
13 14 15 14 15 16 15 13 13 12 12 12 12 10 9 8 8 8 8 8 8 6 4 4 6 5 3 2 2 2 3 4 4 4 4 7 7 5 6 7 8 8 9 11
14 16 17 16 14 15 15 13 13 12 10 11 12 11 10 8 8 8 8 6 3 4 5 4 5 3 2 3 3 2 3 4 4 4 4 4 5 6 6 8 9 9 10 11
18 18 19 18 15 13 13 13 13 13 10 10 11 11 10 8 8 8 8 6 3 4 4 5 4 1 1 2 4 3 4 4 4 4 5 5 6 6 6 6 8 10 11 11
18 18 18 17 17 14 10 10 11 12 12 11 11 11 11 9 8 7 6 5 4 6 4 3 1 2 3 4 3 3 4 4 4 4 5 5 6 6 6 7 9 9 9 10
17 17 18 17 17 15 12 10 10 11 11 11 11 10 9 8 6 6 5 3 3 6 4 1 2 4 5 4 3 3 4 4 5 5 5 6 6 6 7 7 8 8 9 9
17 17 16 16 16 16 13 10 9 10 10 10 9 9 9 7 5 4 4 6 7 6 3 3 5 5 5 3 3 4 4 5 5 5 5 6 7 6 6 7 8 9 9 10
16 17 17 16 14 12 12 12 12 11 11 9 8 7 5 4 5 4 5 5 6 5 3 4 6 7 5 3 4 4 4 5 6 5 5 6 6 6 7 7 8 9 9 9
15 13 10 9 10 11 11 10 9 8 9 9 7 5 5 5 6 5 5 5 5 4 3 3 4 5 4 4 5 5 5 6 7 6 6 7 7 8 8 8 9 9 9 9
13 12 11 10 9 8 8 9 10 9 8 9 8 5 5 5 5 5 4 3 3 3 3 3 3 4 4 5 5 5 5 5 5 6 7 7 7 7 8 9 9 9 9 10
Wind_Direction
254 257 247 222 200 192 195 193 205 251 246 252 232 192 177 166 161 160 166 167 167 163 156 149 144 140 138 132 128 127 124 125 132 133 127 118 100 55 17 360 352 347 342 333
266 248 217 206 198 191 196 202 224 263 263 253 232 108 137 157 163 169 173 172 166 159 154 151 147 143 139 134 132 131 131 132 131 128 123 112 82 40 17 4 354 350 340 328
307 131 147 175 187 187 194 198 204 226 235 203 131 116 148 171 172 176 174 166 163 160 157 151 147 145 142 137 133 130 128 129 132 131 118 94 63 36 13 355 347 337 328 322
320 58 110 165 172 181 191 202 204 209 198 147 123 98 42 10 172 161 151 148 145 141 136 131 127 129 126 129 129 127 127 131 134 126 109 81 50 20 350 336 333 319 311 312
346 349 332 21 121 168 177 189 199 171 133 128 141 86 30 10 74 115 117 124 125 128 129 125 128 130 127 125 124 124 128 129 125 118 104 69 22 352 333 323 317 306 305 312
359 20 5 305 29 198 138 182 187 164 159 168 149 123 167 37 83 93 97 106 112 114 116 120 124 126 125 126 123 125 127 124 118 112 99 51 0 335 319 309 299 305 313 314
247 307 278 263 290 120 143 217 189 166 165 158 140 136 130 107 91 97 101 105 109 111 115 121 123 123 123 121 125 127 123 117 106 88 57 32 4 329 313 313 316 319 315 312
170 218 263 282 56 142 192 89 88 119 117 110 109 109 112 109 106 105 104 102 107 110 109 112 119 121 118 122 127 122 115 105 85 57 33 27 0 330 324 326 324 321 318 316
192 211 245 357 90 81 123 112 107 109 123 125 121 121 119 113 111 107 107 105 107 112 108 101 108 119 124 133 129 117 103 86 64 45 34 18 351 334 328 327 325 322 320 321
229 258 227 94 76 66 87 107 113 126 131 130 128 130 126 122 117 110 110 111 113 111 111 107 108 112 123 127 119 109 97 79 61 46 12 350 342 329 325 324 323 321 327 328
232 263 91 204 147 116 100 108 110 107 113 127 128 128 128 128 125 123 124 118 121 122 123 123 121 114 114 114 110 104 95 80 55 15 338 330 332 325 330 316 326 335 328 321
213 205 185 198 161 136 128 130 130 121 108 109 124 127 128 128 126 124 125 125 124 123 126 127 121 115 110 108 109 110 102 81 5 327 323 324 323 325 341 342 338 341 340 337
194 149 124 127 125 119 123 126 125 122 126 121 112 121 122 116 113 114 119 130 135 137 134 130 123 119 117 111 109 114 119 59 329 328 323 322 324 324 324 330 335 339 339 337
132 117 115 130 128 120 118 115 107 101 103 110 113 112 111 108 111 116 125 132 130 126 125 126 124 124 123 117 114 109 81 6 349 324 321 319 315 311 309 316 323 321 328 333
111 121 133 125 120 121 121 119 114 111 107 102 106 113 117 120 120 118 117 116 115 114 119 124 124 126 125 120 112 92 48 344 331 325 321 314 309 306 306 311 318 319 318 328
97 103 121 128 131 131 130 128 127 127 124 121 120 116 113 113 112 109 112 119 123 127 130 127 128 132 125 114 105 82 23 356 357 344 329 320 310 307 314 320 322 322 325 329
127 135 138 138 140 137 135 135 137 138 135 132 130 125 120 115 110 108 108 109 113 116 121 123 125 123 120 121 115 85 5 344 350 342 320 308 304 310 320 323 321 321 321 326
153 153 155 151 147 139 131 129 133 135 135 133 131 128 128 130 130 125 116 107 98 90 91 110 121 120 114 118 116 18 342 330 325 317 310 309 319 325 322 318 317 320 324 326
119 124 125 127 131 131 132 132 131 128 128 131 132 131 128 126 125 123 118 114 116 117 119 131 130 116 98 30 49 14 340 329 323 317 309 328 335 320 320 321 321 322 325 329
116 120 120 118 120 127 128 127 127 125 125 125 123 119 118 120 120 117 108 98 106 138 145 134 116 111 87 343 11 359 337 328 320 315 312 314 317 319 319 323 325 326 327 324
127 126 124 122 115 111 119 125 128 125 121 120 124 125 122 117 116 116 113 105 97 122 125 123 123 148 269 345 20 360 341 332 324 318 317 319 319 312 307 309 320 325 323 319
131 129 125 122 119 112 103 107 117 120 118 115 114 116 116 114 111 102 97 125 137 123 103 90 134 294 345 44 22 353 343 334 324 318 315 313 312 310 311 316 319 318 313 311
130 127 124 123 122 116 103 99 106 115 118 121 123 124 123 123 125 128 125 132 109 101 88 34 343 357 38 50 5 349 341 331 322 315 310 308 308 310 309 307 306 309 308 309
124 120 118 117 116 114 111 103 98 102 103 104 108 117 122 116 91 75 108 122 114 94 58 19 15 16 28 14 345 337 330 318 307 300 300 309 311 303 297 300 305 307 307 308
121 120 121 122 121 122 122 117 108 105 103 101 94 89 90 102 115 109 91 84 97 94 52 15 14 14 16 345 335 327 317 309 307 312 311 305 300 299 299 300 302 304 305 305
123 121 119 117 126 132 135 132 128 126 123 115 102 89 87 86 92 92 87 76 67 69 50 6 354 359 348 334 323 314 307 311 319 316 303 301 299 302 304 305 303 303 303 302
109 112 114 114 116 124 129 131 132 131 130 126 118 103 98 94 92 91 88 70 48 25 3 348 343 338 328 319 313 309 308 309 307 304 301 298 298 299 301 301 302 302 301 299
Height
1402 1398 1401 1398 1398 1402 1409 1412 1414 1408 1405 1391 1384 1382 1384 1388 1395 1402 1408 1413 1417 1423 1429 1435 1440 1445 1450 1453 1457 1460 1463 1465 1468 1469 1470 1470 1470 1468 1466 1464 1462 1459 1456 1452
1392 1381 1385 1389 1390 1396 1403 1408 1410 1411 1402 1384 1383 1384 1386 1389 1394 1400 1405 1410 1416 1421 1427 1433 1438 1443 1448 1452 1455 1458 1461 1464 1466 1467 1468 1468 1466 1465 1463 1461 1458 1455 1451 1447
1382 1373 1377 1383 1382 1389 1397 1400 1405 1405 1394 1384 1385 1386 1388 1390 1392 1396 1402 1407 1413 1419 1425 1432 1438 1442 1447 1450 1454 1457 1459 1461 1463 1465 1465 1464 1463 1461 1460 1457 1455 1452 1448 1443
1385 1377 1378 1376 1372 1379 1387 1390 1392 1389 1385 1383 1386 1389 1390 1392 1394 1397 1402 1407 1413 1419 1427 1433 1438 1443 1446 1450 1453 1455 1457 1459 1461 1462 1462 1461 1460 1458 1456 1454 1451 1447 1443 1438
1390 1383 1376 1370 1370 1374 1380 1383 1383 1383 1385 1386 1386 1387 1392 1393 1395 1398 1402 1408 1414 1421 1427 1433 1438 1442 1446 1449 1451 1453 1456 1457 1459 1459 1459 1458 1457 1455 1453 1450 1447 1443 1438 1433
1391 1387 1382 1373 1368 1369 1373 1379 1376 1376 1380 1383 1384 1393 1398 1396 1396 1400 1404 1410 1416 1423 1429 1433 1438 1442 1445 1447 1449 1452 1454 1456 1456 1456 1456 1455 1454 1452 1449 1446 1442 1438 1434 1429
1392 1391 1383 1371 1367 1368 1380 1376 1371 1373 1375 1379 1382 1387 1395 1398 1400 1404 1409 1414 1420 1425 1430 1434 1438 1441 1443 1446 1448 1450 1452 1453 1454 1454 1454 1453 1451 1449 1446 1442 1438 1433 1429 1424
1390 1391 1386 1367 1366 1370 1371 1368 1369 1371 1375 1379 1383 1388 1395 1400 1404 1408 1412 1418 1422 1426 1430 1434 1437 1440 1442 1445 1447 1449 1451 1451 1452 1452 1451 1450 1448 1445 1442 1437 1433 1427 1422 1418
1380 1379 1371 1368 1368 1369 1369 1369 1371 1373 1376 1380 1385 1392 1398 1403 1408 1412 1416 1420 1424 1427 1430 1434 1437 1440 1442 1444 1446 1448 1449 1450 1450 1450 1449 1447 1444 1441 1437 1432 1427 1422 1417 1412
1374 1371 1369 1369 1369 1370 1371 1372 1373 1376 1379 1382 1387 1394 1400 1406 1410 1414 1418 1422 1425 1429 1431 1434 1437 1440 1442 1444 1446 1447 1448 1448 1448 1447 1446 1444 1440 1436 1432 1427 1422 1418 1413 1408
1371 1368 1368 1369 1370 1371 1373 1375 1377 1380 1384 1387 1391 1398 1403 1408 1413 1417 1420 1424 1427 1429 1432 1434 1437 1440 1442 1444 1445 1446 1446 1446 1445 1444 1443 1440 1437 1433 1428 1425 1421 1416 1411 1406
1366 1363 1365 1365 1368 1371 1373 1376 1380 1383 1388 1393 1397 1401 1406 1411 1415 1418 1421 1424 1427 1430 1432 1435 1437 1439 1441 1443 1444 1444 1444 1444 1443 1441 1439 1436 1433 1430 1426 1423 1418 1413 1409 1404
1357 1358 1361 1363 1368 1371 1374 1379 1383 1387 1391 1396 1401 1405 1408 1412 1416 1419 1422 1425 1427 1430 1432 1435 1437 1439 1440 1442 1442 1442 1442 1441 1440 1438 1436 1432 1429 1425 1421 1418 1415 1410 1405 1400
1355 1357 1362 1364 1368 1372 1376 1381 1386 1391 1396 1400 1403 1407 1410 1413 1417 1419 1422 1425 1427 1430 1432 1434 1437 1439 1440 1440 1441 1441 1440 1439 1437 1435 1432 1429 1426 1422 1418 1413 1408 1404 1401 1396
1354 1355 1357 1362 1368 1373 1378 1383 1388 1393 1398 1403 1406 1409 1412 1414 1417 1420 1423 1425 1427 1430 1432 1435 1436 1438 1439 1439 1439 1439 1438 1437 1435 1432 1429 1426 1423 1419 1415 1410 1405 1400 1395 1391
1353 1355 1358 1362 1368 1373 1379 1384 1388 1394 1399 1403 1407 1410 1413 1416 1418 1421 1423 1426 1428 1430 1433 1434 1436 1437 1438 1438 1438 1437 1436 1434 1432 1429 1426 1423 1419 1415 1411 1406 1402 1397 1392 1386
1352 1357 1360 1364 1369 1374 1379 1385 1390 1395 1400 1404 1407 1411 1414 1416 1419 1421 1424 1427 1430 1431 1433 1435 1436 1436 1437 1437 1436 1435 1433 1431 1429 1426 1423 1420 1416 1412 1408 1403 1399 1394 1389 1384
1352 1353 1356 1359 1365 1374 1381 1387 1392 1397 1401 1405 1408 1412 1415 1417 1419 1422 1425 1427 1430 1432 1433 1434 1435 1435 1435 1435 1434 1432 1430 1428 1425 1422 1419 1416 1412 1409 1405 1400 1396 1391 1386 1381
1353 1356 1361 1367 1372 1377 1383 1389 1394 1399 1403 1406 1409 1413 1416 1419 1421 1423 1426 1428 1430 1431 1433 1433 1434 1434 1434 1433 1431 1429 1426 1424 1421 1418 1415 1412 1408 1405 1401 1397 1392 1387 1382 1377
1354 1358 1363 1369 1376 1382 1387 1392 1396 1400 1404 1408 1411 1414 1417 1420 1422 1424 1426 1428 1430 1431 1432 1432 1432 1432 1431 1429 1427 1425 1423 1420 1417 1414 1411 1407 1404 1400 1397 1393 1388 1384 1379 1374
1355 1360 1365 1372 1378 1385 1389 1394 1398 1401 1405 1409 1412 1415 1417 1420 1422 1424 1426 1427 1429 1430 1430 1430 1430 1429 1427 1426 1424 1422 1419 1417 1414 1411 1407 1403 1400 1397 1393 1389 1385 1380 1375 1370
1356 1361 1368 1374 1380 1386 1392 1397 1400 1403 1406 1410 1413 1416 1418 1420 1422 1424 1426 1427 1428 1428 1428 1428 1427 1426 1425 1423 1421 1418 1415 1412 1409 1406 1403 1400 1396 1393 1389 1385 1380 1376 1371 1367
1358 1364 1371 1377 1382 1388 1394 1399 1403 1405 1408 1410 1413 1415 1418 1420 1422 1423 1424 1426 1426 1426 1426 1425 1424 1423 1421 1419 1416 1414 1411 1408 1405 1402 1399 1396 1392 1389 1385 1380 1376 1371 1367 1363
1361 1367 1374 1380 1385 1390 1395 1400 1403 1406 1409 1411 1414 1416 1418 1419 1421 1422 1423 1424 1424 1424 1424 1423 1421 1420 1418 1415 1412 1410 1407 1404 1401 1398 1395 1392 1388 1384 1380 1375 1371 1367 1363 1359
1365 1371 1377 1382 1387 1391 1396 1400 1403 1406 1408 1411 1413 1416 1418 1420 1421 1421 1422 1423 1423 1422 1421 1420 1418 1416 1414 1411 1408 1406 1403 1400 1397 1394 1390 1387 1383 1379 1375 1370 1366 1362 1358 1354
1370 1376 1381 1386 1390 1393 1396 1400 1402 1406 1408 1411 1413 1416 1418 1419 1420 1421 1421 1421 1421 1420 1419 1417 1415 1413 1410 1408 1405 1402 1399 1396 1393 1389 1386 1382 1378 1374 1370 1365 1362 1358 1354 1351
1374 1379 1384 1389 1393 1396 1398 1401 1403 1406 1409 1411 1413 1416 1417 1419 1420 1420 1420 1420 1419 1418 1416 1414 1412 1409 1407 1404 1401 1398 1395 1391 1388 1384 1381 1377 1374 1370 1365 1362 1358 1355 1351 1348